Regional Weather Roundup
Issued by NWS Charleston, SC

Current Version | Previous Version | Graphics & Text | Print | Product List | Glossary On
Versions: 1 2 3 4 5 6 7 8 9 10 11 12 13 14 15 16 17 18 19 20 21 22 23 24 25 26 27 28 29 30 31 32 33 34 35 36 37 38 39 40 41 42 43 44 45 46 47 48 49 50
000
ASUS42 KCHS 281910
RWRCHS
REGIONAL WEATHER ROUNDUP
NATIONAL WEATHER SERVICE CHARLESTON SC
300 PM EDT MON JUL 28 2014

NOTE: "FAIR" INDICATES FEW OR NO CLOUDS BELOW 12,000 FEET WITH NO
SIGNIFICANT WEATHER AND/OR OBSTRUCTIONS TO VISIBILITY.

NOT ALL STATIONS ARE QUALITY CONTROLLED BY THE NATIONAL
WEATHER SERVICE. USE DATA WITH CAUTION...ESPECIALLY
DEWPOINT OBSERVATIONS.

SCZ027-030-031-034>040-042>050-282000-
...SOUTH CAROLINA...

CITY           SKY/WX    TMP DP  RH WIND       PRES   REMARKS
N CHARLESTON   MOSUNNY   95  76  53 W12       29.83F HX 108
WATERFRONT PRK   N/A     91 N/A N/A W10G20      N/A
FORT JOHNSON   NOT AVBL
MOUNT PLEASANT FAIR      93  79  62 W12       29.83F HX 110
JOHNS ISLAND   PTCLDY    95  73  49 SW10G16   29.84F HX 105
PINOPOLIS        N/A     91  77  62 W15       29.76F HX 105
MONCKS CORNER    N/A     93  81  66 SW9       29.82F HX 113
SUMMERVILLE    FAIR      91  79  66 SW10      29.84F HX 107
BEAUFORT MCAS  PTSUNNY   95  74  50 NW15G21   29.84F HX 105
BEAUFORT ARPT  FAIR      97  73  46 W16G24    29.84F HX 107
HILTON HEAD IS MOSUNNY   97  73  46 W13G21    29.86F HX 107
GEORGETOWN     NOT AVBL
WALTERBORO     PTCLDY    95  72  46 W17G24    29.84F HX 103
ORANGEBURG     MOSUNNY   93  74  53 W15       29.82F HX 103
BARNWELL       MOCLDY    95  75  52 W12G18    29.84F HX 107
AIKEN          FAIR      95  70  43 W17G26    29.86F HX 101
MANNING        FAIR      93  75  55 SW15G21   29.80F HX 104
KINGSTREE      NOT AVBL
COLUMBIA       MOSUNNY  100  63  29 W20       29.79F HX 102
SUMTER         MOSUNNY   92  73  53 W13G22    29.78F HX 101
FLORENCE       MOSUNNY   94  73  50 W14       29.78F HX 103
MYRTLE BEACH   MOSUNNY   93  75  55 SW9       29.80F HX 104
N MYRTLE BEACH MOSUNNY   91  78  65 SW14      29.78F HX 106

$$

GAZ063-065-086>088-099>101-113>116-118-119-134-136>141-150-282000-
...GEORGIA...

CITY           SKY/WX    TMP DP  RH WIND       PRES   REMARKS
SAVANNAH ARPT  PTSUNNY   97  71  42 W12G22    29.86F HX 104
HUNTER AAF     PTSUNNY   96  74  49 W16G23    29.84F HX 107
FORT STEWART   MOSUNNY   99  68  36 W18       29.86F HX 104
STATESBORO     NOT AVBL
SYLVANIA       PTCLDY    93  81  67 W10G16    29.87F THUNDER HX 112
CLAXTON        FAIR      95  77  55 W14G22    29.87F HX 109
THOMSON        MOSUNNY   95  77  55 W10G17    29.89F HX 110
AUGUSTA-BUSH   MOSUNNY   94  72  48 W13G23    29.82F HX 102
AUGUSTA-DANIEL SUNNY     95  72  47 W12G21    29.85F HX 103
SWAINSBORO     MOCLDY    95  79  59 NW10G17   29.88F HX 112
VIDALIA          N/A     95  75  52 W14       29.89F HX 107
ALMA           NOT AVBL
WAYCROSS       MOSUNNY  101  75  43 W18       29.90F HX 115
JESUP          NOT AVBL
BRUNSWICK      MOSUNNY   97  70  41 W18       29.90F HX 103
SAINT SIMONS   MOSUNNY   96  72  45 W13G22    29.89F HX 104

$$

SCZ027-028-034-036>038-045-046-048>050-GAZ119-141-282000-
...LAKE AND SUPPLEMENTAL COASTAL OBSERVATIONS...

STATION/POSITION TIME  TEMP    WIND        PRES    WAVE   SWELL
                       AIR SEA DIR/SP/G            HT/PER HT/PER/DIR
                 (UTC) (F)     (DEG/KT/KT) (MB)    (FT/S) (FT/S/D)
UPR LAKE MARION  NOT AVBL
WINYAH BAY       NOT AVBL
LAKE MURRAY      1800   91     250/ 16/ 21 1008.8F
ACE BASIN NERRS  NOT AVBL
FORT PULASKI     1900   94     260/ 14/ 19 1011.3F
SAPELO ISLAND    1800   93     260/ 16     1014.0S

$$

ANZ835-935-AMZ111-154-330-350-352-354-374-450-454-472-282000-
...C-MAN AND BUOY OBSERVATIONS...

STATION/POSITION TIME  TEMP    WIND        PRES    WAVE   SWELL
                       AIR SEA DIR/SP/G            HT/PER HT/PER/DIR
                 (UTC) (F)     (DEG/KT/KT) (MB)    (FT/S) (FT/S/D)
FOLLY BEACH CMAN 1800   89     230/ 10/ 13 1011.2F
BUOY 41004       1900   84 83  220/ 16/ 19 1010.0F   4/ 5   2/ 9
BUOY 41008       1900   87 85  210/ 12/ 14 1012.1F   2/ 9   2/110/ 9
5E ST. MARYS GA  1900      86                N/A     2/10
FRYING PAN BUOY  NOT AVBL
BUOY 41025       1900          VRB 16/ 17  1008.1F   5/ 7   2/110/ 9
CAPE LOOKOUT NC  1800   82     220/ 10/ 13 1009.1F
BUOY 41002       1826   82 81  230/ 16/ 17 1013.9F   6/ 7   2/160/ 9
BUOY 41010       1900   84 85  250/ 12/ 14 1016.3F   4/ 6   3/310/ 6
BUOY 41012       NOT AVBL
ST AUGUSTINE FL  1900   92     260/  8/ 10 1014.8F
CAPERS NEARSHORE 1800   87     250/ 16/ 17   N/A
FRIPP NEARSHORE  NOT AVBL


$$



USA.gov is the U.S. government's official web portal to all federal, state and local government web resources and services.